This is the latest recevied weather packets stored in our database for station/object N8SDR. If no packets are shown the sender has not sent any weather packets the latest 10 day(s).
| Time | Temp. | Humidity | Pressure | Rain* | Wind** | Luminosity | Snow |
|---|---|---|---|---|---|---|---|
| 1777547914 | 6.67° C | 87% | 1011.2 hPa | 0 mm | - | 24 W/m² | - |
| 1777547610 | 6.11° C | 88% | 1011.2 hPa | 0 mm | - | 17 W/m² | - |
| 1777547307 | 6.11° C | 88% | 1011.3 hPa | 0 mm | - | 12 W/m² | - |
| 1777547004 | 6.11° C | 88% | 1011.3 hPa | 0 mm | - | 8 W/m² | - |
| 1777546701 | 6.11° C | 88% | 1011.3 hPa | 0 mm | - | 5 W/m² | - |
| 1777546398 | 6.11° C | 88% | 1011.4 hPa | 0 mm | - | 4 W/m² | - |
| 1777546095 | 6.11° C | 88% | 1011.3 hPa | 0 mm | - | 3 W/m² | - |
| 1777545791 | 6.11° C | 88% | 1011.4 hPa | 0 mm | - | 0 W/m² | - |
| 1777545488 | 6.11° C | 88% | 1011.3 hPa | 0 mm | - | 0 W/m² | - |
| 1777545185 | 6.11° C | 88% | 1011.2 hPa | 0 mm | - | 0 W/m² | - |
| 1777544883 | 6.11° C | 88% | 1011.2 hPa | 0 mm | - | 0 W/m² | - |
| 1777544578 | 6.11° C | 88% | 1011 hPa | 0 mm | - | 0 W/m² | - |
| 1777544275 | 6.11° C | 88% | 1011.1 hPa | 0 mm | - | 0 W/m² | - |
| 1777543972 | 5.56° C | 88% | 1011.2 hPa | 0 mm | - | 0 W/m² | - |
| 1777543668 | 5.56° C | 89% | 1011.1 hPa | 0 mm | - | 0 W/m² | - |
| 1777543364 | 5.56° C | 89% | 1011.2 hPa | 0 mm | - | 0 W/m² | - |
| 1777543060 | 5.56° C | 90% | 1011.3 hPa | 0 mm | - | 0 W/m² | - |
| 1777542756 | 5.56° C | 90% | 1011.2 hPa | 0 mm | - | 0 W/m² | - |
| 1777542453 | 5.56° C | 90% | 1011.2 hPa | 0 mm | - | 0 W/m² | - |
| 1777542150 | 5.56° C | 89% | 1011.1 hPa | 0 mm | - | 0 W/m² | - |
| 1777541847 | 5.56° C | 89% | 1011.2 hPa | 0 mm | - | 0 W/m² | - |
| 1777541544 | 6.11° C | 88% | 1011 hPa | 0 mm | - | 0 W/m² | - |
| 1777541241 | 6.11° C | 88% | 1011 hPa | 0 mm | - | 0 W/m² | - |
| 1777540937 | 6.11° C | 88% | 1011.1 hPa | 0 mm | - | 0 W/m² | - |
| 1777540635 | 6.11° C | 88% | 1010.7 hPa | 0 mm | - | 0 W/m² | - |
* Rain latest hour (hover to see other rain measurements)
** Current wind speed in m/s (hover to see current wind gust speed)